KLM1848 EDDM-LOWW

Flight info

Callsign KLM1848
Flight time 0h 38m
Altitude 29000
Route BIBAG2E BIBAG Q104 AKIMA DCT MASUR MASUR3W
Aircraft B737/M-SDE2E3FGHIRWXY/LB1

Departure

Time 2026-05-06 06:28
Airport Munich Airport (EDDM)

Arrival

Time 2026-05-06 07:07
Airport Vienna International Airport (LOWW)
Time Latitude Longitude Altitude Speed Heading
2026-05-06 05:53 48.35423 11.78292 1475 ft 0 kts 83°
2026-05-06 06:18 48.35423 11.78288 1475 ft 2 kts 83°
2026-05-06 06:18 48.35421 11.78266 1474 ft 2 kts 83°
2026-05-06 06:18 48.35419 11.78243 1474 ft 2 kts 83°
2026-05-06 06:18 48.35418 11.78221 1473 ft 2 kts 83°
2026-05-06 06:19 48.35416 11.78199 1472 ft 2 kts 83°
2026-05-06 06:19 48.35415 11.78177 1471 ft 2 kts 83°
2026-05-06 06:19 48.35414 11.78157 1470 ft 2 kts 122°
2026-05-06 06:19 48.35421 11.78147 1470 ft 1 kts 160°
2026-05-06 06:20 48.35429 11.78145 1470 ft 1 kts 175°
2026-05-06 06:20 48.35431 11.78145 1470 ft 0 kts 174°
2026-05-06 06:22 48.35429 11.78145 1470 ft 1 kts 174°
2026-05-06 06:22 48.35394 11.78152 1470 ft 9 kts 171°
2026-05-06 06:22 48.35302 11.78168 1469 ft 16 kts 174°
2026-05-06 06:23 48.35176 11.78190 1470 ft 20 kts 173°
2026-05-06 06:23 48.35032 11.78214 1470 ft 19 kts 173°
2026-05-06 06:23 48.34911 11.78221 1469 ft 16 kts 204°
2026-05-06 06:23 48.34877 11.78081 1468 ft 15 kts 265°
2026-05-06 06:24 48.34863 11.77928 1469 ft 13 kts 250°
2026-05-06 06:24 48.34782 11.77884 1469 ft 15 kts 170°
2026-05-06 06:24 48.34676 11.77876 1469 ft 16 kts 220°
2026-05-06 06:24 48.34650 11.77716 1472 ft 16 kts 264°
2026-05-06 06:25 48.34636 11.77532 1472 ft 20 kts 263°
2026-05-06 06:25 48.34616 11.77274 1472 ft 29 kts 263°
2026-05-06 06:25 48.34569 11.76662 1474 ft 41 kts 263°
2026-05-06 06:26 48.34521 11.76044 1482 ft 47 kts 264°
2026-05-06 06:26 48.34482 11.75538 1482 ft 48 kts 263°
2026-05-06 06:26 48.34449 11.75097 1488 ft 27 kts 264°
2026-05-06 06:26 48.34385 11.74917 1487 ft 19 kts 197°
2026-05-06 06:27 48.34262 11.74926 1484 ft 15 kts 173°
2026-05-06 06:27 48.34174 11.74984 1483 ft 14 kts 131°
2026-05-06 06:27 48.34108 11.75099 1482 ft 13 kts 145°
2026-05-06 06:27 48.34074 11.75184 1482 ft 0 kts 84°
2026-05-06 06:28 48.34074 11.75185 1482 ft 0 kts 84°
2026-05-06 06:28 48.34087 11.75351 1482 ft 60 kts 83°
2026-05-06 06:28 48.34178 11.76521 1527 ft 159 kts 83°
2026-05-06 06:28 48.34309 11.78214 2552 ft 177 kts 82°
2026-05-06 06:29 48.34506 11.80209 3355 ft 215 kts 80°
2026-05-06 06:29 48.34705 11.82520 4341 ft 241 kts 84°
2026-05-06 06:29 48.34859 11.85116 5481 ft 263 kts 83°
2026-05-06 06:29 48.35060 11.87926 6685 ft 281 kts 82°
2026-05-06 06:30 48.35275 11.90861 8011 ft 293 kts 84°
2026-05-06 06:30 48.35288 11.92903 8901 ft 300 kts 97°
2026-05-06 06:30 48.34385 11.96791 10747 ft 306 kts 118°
2026-05-06 06:30 48.33492 11.99739 11850 ft 322 kts 117°
2026-05-06 06:31 48.32593 12.02848 12987 ft 335 kts 117°
2026-05-06 06:31 48.31647 12.06084 14146 ft 347 kts 118°
2026-05-06 06:31 48.30668 12.09408 15300 ft 357 kts 118°
2026-05-06 06:31 48.29643 12.12887 16441 ft 367 kts 118°
2026-05-06 06:32 48.28606 12.16402 17522 ft 377 kts 118°
2026-05-06 06:32 48.27551 12.19973 18665 ft 383 kts 118°
2026-05-06 06:32 48.26482 12.23589 19920 ft 384 kts 118°
2026-05-06 06:32 48.25441 12.27279 21077 ft 388 kts 112°
2026-05-06 06:33 48.24839 12.31232 22164 ft 394 kts 96°
2026-05-06 06:33 48.24927 12.35268 22882 ft 392 kts 78°
2026-05-06 06:33 48.25744 12.39218 22881 ft 394 kts 60°
2026-05-06 06:33 48.27071 12.42721 22855 ft 384 kts 53°
2026-05-06 06:34 48.28450 12.46125 22858 ft 384 kts 54°
2026-05-06 06:34 48.29800 12.49601 22858 ft 385 kts 54°
2026-05-06 06:34 48.31144 12.53070 22858 ft 385 kts 54°
2026-05-06 06:34 48.32497 12.56534 22858 ft 385 kts 54°
2026-05-06 06:35 48.33853 12.59994 22858 ft 385 kts 54°
2026-05-06 06:35 48.35203 12.63446 22858 ft 385 kts 54°
2026-05-06 06:35 48.36557 12.66910 22858 ft 385 kts 55°
2026-05-06 06:35 48.37848 12.70248 22858 ft 386 kts 57°
2026-05-06 06:36 48.38949 12.73899 22859 ft 390 kts 67°
2026-05-06 06:36 48.39659 12.77869 22859 ft 393 kts 78°
2026-05-06 06:36 48.39861 12.80593 22859 ft 394 kts 85°
2026-05-06 06:36 48.39996 12.86097 22859 ft 395 kts 87°
2026-05-06 06:37 48.40122 12.90213 22859 ft 394 kts 86°
2026-05-06 06:37 48.40263 12.94308 22859 ft 394 kts 86°
2026-05-06 06:37 48.40392 12.98436 22859 ft 394 kts 86°
2026-05-06 06:37 48.40514 13.02549 22859 ft 394 kts 85°
2026-05-06 06:38 48.40633 13.06634 22859 ft 393 kts 84°
2026-05-06 06:38 48.40750 13.10721 22859 ft 390 kts 83°
2026-05-06 06:38 48.40865 13.14817 22860 ft 388 kts 82°
2026-05-06 06:38 48.40976 13.18852 22859 ft 384 kts 82°
2026-05-06 06:39 48.41085 13.22843 22859 ft 382 kts 82°
2026-05-06 06:39 48.41192 13.26812 22859 ft 382 kts 82°
2026-05-06 06:39 48.41299 13.30820 22858 ft 383 kts 81°
2026-05-06 06:39 48.41474 13.34765 22858 ft 381 kts 78°
2026-05-06 06:40 48.41734 13.38725 22858 ft 381 kts 77°
2026-05-06 06:40 48.41987 13.42720 22858 ft 381 kts 78°
2026-05-06 06:40 48.42219 13.46662 22857 ft 381 kts 78°
2026-05-06 06:40 48.42451 13.50644 22857 ft 381 kts 78°
2026-05-06 06:41 48.42682 13.54598 22857 ft 381 kts 78°
2026-05-06 06:41 48.42914 13.58610 22857 ft 381 kts 78°
2026-05-06 06:41 48.43138 13.62533 22857 ft 381 kts 78°
2026-05-06 06:41 48.43366 13.66542 22857 ft 381 kts 79°
2026-05-06 06:42 48.43589 13.70490 22857 ft 382 kts 79°
2026-05-06 06:42 48.43813 13.74470 22857 ft 382 kts 79°
2026-05-06 06:42 48.44034 13.78450 22857 ft 382 kts 79°
2026-05-06 06:42 48.44254 13.82428 22857 ft 382 kts 79°
2026-05-06 06:43 48.44472 13.86396 22858 ft 382 kts 79°
2026-05-06 06:43 48.44690 13.90380 22858 ft 382 kts 79°
2026-05-06 06:43 48.44905 13.94351 22858 ft 381 kts 79°
2026-05-06 06:43 48.45121 13.98357 22858 ft 381 kts 79°
2026-05-06 06:44 48.45333 14.02322 22858 ft 381 kts 79°
2026-05-06 06:44 48.45544 14.06301 22858 ft 381 kts 79°
2026-05-06 06:44 48.45753 14.10241 22858 ft 381 kts 79°
2026-05-06 06:44 48.45962 14.14236 22858 ft 381 kts 79°
2026-05-06 06:45 48.46170 14.18215 22859 ft 381 kts 79°
2026-05-06 06:45 48.46375 14.22174 22859 ft 381 kts 79°
2026-05-06 06:45 48.46578 14.26129 22858 ft 381 kts 79°
2026-05-06 06:45 48.46783 14.30138 22859 ft 381 kts 79°
2026-05-06 06:46 48.46985 14.34125 22858 ft 381 kts 79°
2026-05-06 06:46 48.47184 14.38071 22858 ft 381 kts 79°
2026-05-06 06:46 48.47382 14.42025 22858 ft 381 kts 79°
2026-05-06 06:46 48.47580 14.46001 22857 ft 381 kts 79°
2026-05-06 06:47 48.47776 14.49982 22857 ft 381 kts 79°
2026-05-06 06:47 48.47971 14.53964 22857 ft 381 kts 79°
2026-05-06 06:47 48.48165 14.57948 22857 ft 381 kts 79°
2026-05-06 06:47 48.48358 14.61935 22857 ft 381 kts 79°
2026-05-06 06:48 48.48548 14.65912 22856 ft 381 kts 80°
2026-05-06 06:48 48.48739 14.69905 22857 ft 382 kts 80°
2026-05-06 06:48 48.48927 14.73875 22857 ft 383 kts 80°
2026-05-06 06:48 48.49115 14.77901 22857 ft 383 kts 80°
2026-05-06 06:49 48.49299 14.81851 22858 ft 382 kts 80°
2026-05-06 06:49 48.49486 14.85891 22858 ft 383 kts 80°
2026-05-06 06:49 48.49667 14.89848 22858 ft 382 kts 80°
2026-05-06 06:49 48.49848 14.93832 22858 ft 382 kts 80°
2026-05-06 06:50 48.50029 14.97829 22858 ft 382 kts 80°
2026-05-06 06:50 48.50208 15.01844 22858 ft 381 kts 79°
2026-05-06 06:50 48.50384 15.05806 22846 ft 381 kts 79°
2026-05-06 06:50 48.50557 15.09744 22473 ft 377 kts 79°
2026-05-06 06:51 48.50730 15.13687 21920 ft 378 kts 80°
2026-05-06 06:51 48.50905 15.17666 21310 ft 380 kts 80°
2026-05-06 06:51 48.51076 15.21635 20689 ft 383 kts 81°
2026-05-06 06:51 48.51247 15.25618 20043 ft 385 kts 81°
2026-05-06 06:52 48.51418 15.29656 19422 ft 386 kts 82°
2026-05-06 06:52 48.51586 15.33686 18922 ft 382 kts 82°
2026-05-06 06:52 48.51750 15.37623 18419 ft 380 kts 82°
2026-05-06 06:52 48.51907 15.41596 17909 ft 377 kts 83°
2026-05-06 06:53 48.51923 15.45503 17404 ft 376 kts 90°
2026-05-06 06:53 48.51706 15.49444 16897 ft 374 kts 93°
2026-05-06 06:53 48.51469 15.53338 16391 ft 371 kts 92°
2026-05-06 06:53 48.51261 15.57182 15893 ft 368 kts 92°
2026-05-06 06:54 48.51052 15.61002 15396 ft 364 kts 93°
2026-05-06 06:54 48.50840 15.64749 14909 ft 361 kts 93°
2026-05-06 06:54 48.50626 15.68483 14417 ft 357 kts 94°
2026-05-06 06:54 48.50409 15.72222 13928 ft 354 kts 94°
2026-05-06 06:55 48.50198 15.75849 13455 ft 350 kts 94°
2026-05-06 06:55 48.49984 15.79476 12980 ft 346 kts 94°
2026-05-06 06:55 48.49771 15.83093 12506 ft 342 kts 95°
2026-05-06 06:55 48.49562 15.86619 12043 ft 338 kts 95°
2026-05-06 06:56 48.49352 15.90134 11584 ft 334 kts 95°
2026-05-06 06:56 48.49145 15.93585 11133 ft 330 kts 95°
2026-05-06 06:56 48.48940 15.96987 10688 ft 327 kts 95°
2026-05-06 06:56 48.48733 16.00399 10241 ft 323 kts 95°
2026-05-06 06:57 48.48531 16.03720 9947 ft 315 kts 95°
2026-05-06 06:57 48.48336 16.06906 9868 ft 300 kts 95°
2026-05-06 06:57 48.48062 16.10012 9481 ft 297 kts 105°
2026-05-06 06:57 48.47308 16.12857 9115 ft 294 kts 116°
2026-05-06 06:58 48.46454 16.15637 8746 ft 291 kts 115°
2026-05-06 06:58 48.45632 16.18441 8374 ft 289 kts 115°
2026-05-06 06:58 48.44826 16.21168 8050 ft 285 kts 115°
2026-05-06 06:58 48.44027 16.23863 7803 ft 278 kts 115°
2026-05-06 06:59 48.43250 16.26484 7564 ft 272 kts 115°
2026-05-06 06:59 48.42490 16.29042 7332 ft 266 kts 115°
2026-05-06 06:59 48.41742 16.31556 7103 ft 260 kts 115°
2026-05-06 06:59 48.41003 16.34035 6862 ft 256 kts 115°
2026-05-06 07:00 48.40280 16.36462 6573 ft 253 kts 115°
2026-05-06 07:00 48.39568 16.38846 6294 ft 251 kts 115°
2026-05-06 07:00 48.38859 16.41221 6023 ft 249 kts 115°
2026-05-06 07:00 48.38148 16.43600 5768 ft 245 kts 115°
2026-05-06 07:01 48.37411 16.45875 5515 ft 241 kts 124°
2026-05-06 07:01 48.36176 16.47481 5283 ft 232 kts 158°
2026-05-06 07:01 48.34668 16.48141 5100 ft 226 kts 166°
2026-05-06 07:01 48.33187 16.48786 4933 ft 220 kts 165°
2026-05-06 07:02 48.31702 16.49426 4669 ft 220 kts 165°
2026-05-06 07:02 48.30246 16.50049 4377 ft 220 kts 165°
2026-05-06 07:02 48.28765 16.50681 4070 ft 222 kts 165°
2026-05-06 07:02 48.27285 16.51313 3778 ft 220 kts 165°
2026-05-06 07:03 48.25818 16.51938 3459 ft 219 kts 165°
2026-05-06 07:03 48.24391 16.52546 3155 ft 207 kts 165°
2026-05-06 07:03 48.23070 16.53108 2882 ft 190 kts 165°
2026-05-06 07:03 48.21849 16.53627 2624 ft 176 kts 165°
2026-05-06 07:04 48.20719 16.54108 2400 ft 161 kts 165°
2026-05-06 07:04 48.19706 16.54538 2190 ft 142 kts 164°
2026-05-06 07:04 48.18823 16.54913 2014 ft 122 kts 165°
2026-05-06 07:04 48.18034 16.55248 1852 ft 115 kts 165°
2026-05-06 07:05 48.17270 16.55572 1711 ft 115 kts 165°
2026-05-06 07:05 48.16526 16.55890 1536 ft 110 kts 165°
2026-05-06 07:05 48.15780 16.56205 1391 ft 112 kts 165°
2026-05-06 07:05 48.15036 16.56518 1247 ft 111 kts 165°
2026-05-06 07:06 48.14292 16.56835 1096 ft 111 kts 165°
2026-05-06 07:06 48.13549 16.57149 949 ft 112 kts 165°
2026-05-06 07:06 48.12783 16.57474 795 ft 115 kts 166°
2026-05-06 07:06 48.12015 16.57801 648 ft 117 kts 165°
2026-05-06 07:07 48.11255 16.58127 594 ft 103 kts 165°
2026-05-06 07:07 48.10747 16.58341 598 ft 44 kts 165°
2026-05-06 07:07 48.10533 16.58430 600 ft 29 kts 165°
2026-05-06 07:07 48.10397 16.58441 601 ft 8 kts 237°
2026-05-06 07:08 48.10427 16.58336 603 ft 15 kts 308°
2026-05-06 07:08 48.10489 16.58191 603 ft 15 kts 311°
2026-05-06 07:08 48.10583 16.58131 602 ft 16 kts 343°
2026-05-06 07:08 48.10712 16.58076 601 ft 21 kts 344°
2026-05-06 07:09 48.10865 16.58013 599 ft 24 kts 343°
2026-05-06 07:09 48.11030 16.57943 597 ft 23 kts 344°
2026-05-06 07:09 48.11128 16.57802 597 ft 19 kts 295°
2026-05-06 07:09 48.11189 16.57620 597 ft 19 kts 295°
2026-05-06 07:10 48.11244 16.57449 601 ft 17 kts 295°
2026-05-06 07:10 48.11293 16.57298 604 ft 15 kts 294°
2026-05-06 07:10 48.11338 16.57162 606 ft 14 kts 295°
2026-05-06 07:10 48.11380 16.57031 606 ft 12 kts 297°
2026-05-06 07:11 48.11418 16.56914 606 ft 13 kts 300°
2026-05-06 07:11 48.11506 16.56902 606 ft 15 kts 26°
2026-05-06 07:11 48.11604 16.56917 606 ft 13 kts 20°
2026-05-06 07:11 48.11655 16.56956 606 ft 0 kts 25°